• Processing (Info)

  • MPEC 2010-V83 : 2010 VC40

    The following Minor Planet Electronic Circular may be linked-to from your own Web pages, but must not otherwise be redistributed electronically.

    A form allowing access to any MPEC is at the bottom of this page.


    Read MPEC 2010-V82 Read MPEC 2010-V84


    M.P.E.C. 2010-V83                                Issued 2010 Nov. 8, 12:54 UT
    
         The Minor Planet Electronic Circulars contain information on unusual
             minor planets and routine data on comets.  They are published
       on behalf of Commission 20 of the International Astronomical Union by the
              Minor Planet Center, Smithsonian Astrophysical Observatory,
                              Cambridge, MA 02138, U.S.A.
    
                 Prepared using the Tamkin Foundation Computer Network
    
                                  MPC@CFA.HARVARD.EDU
           URL https://www.minorplanetcenter.org/iau/mpc.html  ISSN 1523-6714
    
                                       2010 VC40
    
    Observations:
         K10V40C  C2010 11 07.28308 02 06 35.13 +26 34 00.2          21.4 V EV083G96
         K10V40C  C2010 11 07.28933 02 06 36.36 +26 33 52.7          22.4 V EV083G96
         K10V40C  C2010 11 07.32285 02 06 43.05 +26 33 11.3          21.3 V EV083G96
         K10V40C  C2010 11 07.32917 02 06 44.31 +26 33 02.9          21.4 V EV083G96
         K10V40C* C2010 11 07.37271 02 06 53.10 +26 32 07.3          21.6 V EV083G96
         K10V40C  C2010 11 07.37530 02 06 53.64 +26 32 04.4          21.1 V EV083G96
         K10V40C  C2010 11 07.37789 02 06 54.10 +26 32 00.8          21.5 V EV083G96
         K10V40C  C2010 11 07.38049 02 06 54.68 +26 31 57.6          22.1 V EV083G96
         K10V40C  C2010 11 08.10205 02 09 37.02 +26 16 56.6          20.9 R EV083H01
         K10V40C  C2010 11 08.10789 02 09 38.23 +26 16 49.8          20.9 R EV083H01
         K10V40C  C2010 11 08.11519 02 09 39.76 +26 16 41.2          20.4 R EV083H01
         K10V40C  C2010 11 08.12197 02 09 41.17 +26 16 33.3          20.6 R EV083H01
    
    Observer details:
    G96 Mt. Lemmon Survey.  Observer S. M. Larson.  Measurers J. D. Ahern,
        E. C. Beshore, A. Boattini, G. J. Garradd, A. R. Gibbs, A. D. Grauer,
        R. E. Hill, R. A. Kowalski, S. M. Larson, R. H. McNaught.  1.5-m reflector
        + CCD.
    H01 Magdalena Ridge Observatory, Socorro.  Observers W. H. Ryan, E. V. Ryan.
        Measurer W. H. Ryan.  2.4-m f/8.9 reflector + CCD.
    
    Orbital elements:
    2010 VC40                                                Earth MOID = 0.1793 AU
    Epoch 2010 July 23.0 TT = JDT 2455400.5                 MPC
    M 330.84086              (2000.0)            P               Q
    n   0.24717118     Peri.  172.26703     +0.58849792     -0.80216155
    a   2.5146111      Node   241.62697     +0.73550189     +0.58305599
    e   0.5361926      Incl.    6.59344     +0.33571890     +0.12877327
    P   3.99           H   24.0           G   0.15           U   9
    Residuals in seconds of arc
    101107 G96  0.1+  0.2-    101107 G96  0.1+  0.2-    101108 H01  0.1+  0.1-
    101107 G96  0.1-  0.0     101107 G96  0.3+  0.2+    101108 H01  0.1-  0.0
    101107 G96  0.0   0.3+    101107 G96  0.6-  0.1-    101108 H01  0.0   0.0
    101107 G96  0.1-  0.2-    101107 G96  0.1+  0.1+    101108 H01  0.0   0.1+
    
    Ephemeris:
    2010 VC40                a,e,i = 2.51, 0.54, 7                   q = 1.1663
    Date    TT    R. A. (2000) Decl.     Delta      r     Elong.  Phase     V
    2010 10 31    01 41.97   +28 33.7    0.199    1.185   163.0    14.2    21.7
    2010 11 10    02 16.63   +25 35.5    0.184    1.170   166.8    11.1    21.4
    2010 11 20    02 55.59   +21 11.1    0.181    1.167   169.4     9.0    21.2
    2010 11 30    03 33.28   +16 22.6    0.192    1.175   167.2    10.7    21.4
    2010 12 10    04 05.75   +12 21.9    0.218    1.194   162.2    14.6    21.9
    
    Timothy B. Spahr             (C) Copyright 2010 MPC           M.P.E.C. 2010-V83
    

    Read MPEC 2010-V82 Read MPEC 2010-V84


    MPEC number:

    Enter an MPEC number in one of the following forms:

    • 1997-B01 (the full form)
    • J97B01 (the packed version of the full form)
    • B01 (the abbreviated form)